Location: Newark
(49.2191°N, 12.6671°E)
Time: 21:59:30
(UTC+00:00)

Transit 4A - Pass Details

Date: 27 January 2020
Orbit: 872 x 973 km, 66.8° (Epoch: 20 February)

Event Time Altitude Azimuth Distance (km) Brightness Sun altitude
Rises 10:01:16 0° 309° (NW) 3,493 10.4 19.9°
Reaches altitude 10° 10:05:10 10° 334° (NNW) 2,541 9.7 20.1°
Maximum altitude 10:08:09 14° 5° (N) 2,256 9.5 20.3°
Drops below altitude 10° 10:11:08 10° 36° (NE) 2,531 9.9 20.4°
Sets 10:15:00 0° 62° (ENE) 3,469 10.8 20.6°
